Вернуться в каталог

BREEZE-M DEB

LostHEO
NORAD 43400·DEBRIS·🇷🇺 Russia

Запущен May 17, 2012 с Baikonur Cosmodrome

Loading…

Ближайшие Пролёты (ближайшие 24 часа)

TLE

УстаревшееSource: Space-Track

Эпоха: Feb 18, 2018, 04:26 UTC

1 43400U 12026M   18049.18518875 -.00000128  00000-0  00000+0 0  9998
2 43400  12.8400  17.6679 4101926 308.9841  21.0336  1.76667666  6901

Отслеживайте BREEZE-M DEB в реальном времени с AllMySat

Download on the App Store